Location: Newark
(32.9533°N, 113.4900°W)
Time: 04:39:05
(UTC+00:00)

Tiangong 2 - Visible Passes

Search period start: 23 March 2019 00:00
Search period end: 02 April 2019 00:00
Orbit: 380 x 390 km, 42.8° (Epoch: 22 March)

Date Brightness Start Highest point End Pass type
(mag) Time Alt. Az. Time Alt. Az. Time Alt. Az.
23 Mar 3.8 11:27:47 21° ENE 11:27:47 21° ENE 11:29:13 10° E visible
23 Mar 1.8 13:00:11 10° WNW 13:03:08 37° SW 13:06:06 10° SSE visible
24 Mar 1.0 12:03:51 77° S 12:03:51 77° S 12:06:53 10° SE visible
25 Mar 2.7 12:40:06 17° SW 12:40:44 18° SW 12:43:00 10° S visible
26 Mar 4.0 11:44:16 10° SSE 11:44:16 10° SSE 11:44:19 10° SSE visible
28 Mar 3.2 03:11:06 10° SSW 03:12:07 16° S 03:12:07 16° S visible
29 Mar 3.5 03:47:38 10° WSW 03:48:40 19° WSW 03:48:40 19° WSW visible
30 Mar 1.2 02:48:13 10° SW 02:51:16 51° SE 02:52:47 25° E visible
31 Mar 2.2 03:25:30 10° W 03:28:27 39° NNW 03:28:57 36° N visible
01 Apr 1.2 02:25:45 10° WSW 02:28:52 75° NNW 02:32:00 10° ENE visible
01 Apr 4.1 04:03:42 10° WNW 04:04:56 16° NW 04:04:56 16° NW visible
